EN

Hourly Weather Otlowko

Today, 5 March, Friday

Time Temperature Precipitation Wind Pressure Humidity
00:00 -3°C° 0 mm 2 mps 754 mmHg 86%
01:00 -3°C° 0 mm 2 mps 754 mmHg 87%
02:00 -3°C° 0 mm 2 mps 754 mmHg 86%
03:00 -3°C° 0 mm 2 mps 754 mmHg 85%
04:00 -3°C° 0 mm 2 mps 754 mmHg 85%
05:00 -3°C° 0 mm 2 mps 755 mmHg 83%
06:00 -3°C° 0 mm 2 mps 755 mmHg 81%
07:00 -2°C° 0 mm 2 mps 756 mmHg 79%
08:00 -1°C° 0 mm 3 mps 756 mmHg 71%
09:00 0°C° 0 mm 3 mps 756 mmHg 62%
10:00 0°C° 0 mm 4 mps 757 mmHg 54%
11:00 +1°C° 0.2 mm 4 mps 757 mmHg 50%
12:00 +1°C° 0.2 mm 4 mps 757 mmHg 46%
13:00 +2°C° 0.2 mm 5 mps 757 mmHg 42%
14:00 +1°C° 0.1 mm 4 mps 758 mmHg 44%
15:00 +1°C° 0.1 mm 4 mps 758 mmHg 46%
16:00 +2°C° 0.1 mm 3 mps 758 mmHg 49%
17:00 0°C° 0 mm 3 mps 759 mmHg 56%
18:00 -1°C° 0 mm 3 mps 759 mmHg 64%
19:00 -2°C° 0 mm 3 mps 759 mmHg 72%
20:00 -2°C° 0 mm 3 mps 760 mmHg 74%
21:00 -4°C° 0 mm 3 mps 760 mmHg 77%
22:00 -4°C° 0 mm 3 mps 761 mmHg 80%
23:00 -4°C° 0 mm 3 mps 761 mmHg 79%

Tomorrow, 6 March, Saturday

Time Temperature Precipitation Wind Pressure Humidity
00:00 -4°C° 0 mm 3 mps 761 mmHg 77%
01:00 -4°C° 0 mm 3 mps 762 mmHg 76%
02:00 -4°C° 0 mm 3 mps 762 mmHg 76%
03:00 -4°C° 0 mm 3 mps 762 mmHg 75%
04:00 -3°C° 0 mm 2 mps 762 mmHg 75%
05:00 -3°C° 0 mm 2 mps 762 mmHg 74%
06:00 -3°C° 0 mm 2 mps 762 mmHg 74%
07:00 -3°C° 0 mm 2 mps 763 mmHg 73%
08:00 -1°C° 0 mm 2 mps 763 mmHg 66%
09:00 0°C° 0 mm 3 mps 763 mmHg 58%
10:00 +1°C° 0 mm 3 mps 763 mmHg 51%
11:00 +1°C° 0 mm 4 mps 762 mmHg 49%
12:00 +3°C° 0 mm 4 mps 762 mmHg 46%
13:00 +2°C° 0 mm 5 mps 762 mmHg 44%
14:00 +2°C° 0 mm 5 mps 761 mmHg 45%
15:00 +2°C° 0 mm 5 mps 761 mmHg 47%
16:00 +2°C° 0 mm 5 mps 760 mmHg 48%
17:00 +1°C° 0 mm 5 mps 759 mmHg 57%
18:00 0°C° 0 mm 5 mps 759 mmHg 66%
19:00 -1°C° 0 mm 5 mps 758 mmHg 75%
20:00 -1°C° 0 mm 5 mps 758 mmHg 79%
21:00 -2°C° 0 mm 6 mps 758 mmHg 83%
22:00 -2°C° 0 mm 6 mps 757 mmHg 87%
23:00 -2°C° 0 mm 6 mps 757 mmHg 85%

Day after tomorrow, 7 March, Sunday

Time Temperature Precipitation Wind Pressure Humidity
00:00 -2°C° 0 mm 6 mps 757 mmHg 83%
01:00 -2°C° 0 mm 7 mps 756 mmHg 81%
02:00 -2°C° 0 mm 7 mps 756 mmHg 85%
03:00 -2°C° 0 mm 7 mps 755 mmHg 89%
04:00 -3°C° 0 mm 7 mps 755 mmHg 93%
05:00 -3°C° 0.1 mm 7 mps 755 mmHg 94%
06:00 -3°C° 0.1 mm 7 mps 755 mmHg 94%
07:00 -3°C° 0.1 mm 7 mps 755 mmHg 94%
08:00 -2°C° 0.1 mm 7 mps 754 mmHg 93%
09:00 -2°C° 0.1 mm 7 mps 754 mmHg 92%
10:00 -2°C° 0.1 mm 7 mps 754 mmHg 91%
11:00 -2°C° 0.2 mm 7 mps 754 mmHg 92%
12:00 -2°C° 0.2 mm 7 mps 754 mmHg 93%
13:00 -2°C° 0.2 mm 7 mps 754 mmHg 93%
14:00 -2°C° 0.2 mm 7 mps 753 mmHg 93%
15:00 -1°C° 0.2 mm 7 mps 753 mmHg 92%
16:00 -1°C° 0.2 mm 7 mps 752 mmHg 92%
17:00 -2°C° 0.3 mm 7 mps 752 mmHg 93%
18:00 -2°C° 0.3 mm 6 mps 752 mmHg 95%
19:00 -2°C° 0.3 mm 6 mps 752 mmHg 97%
20:00 -2°C° 0.7 mm 4 mps 752 mmHg 95%
21:00 -2°C° 0.7 mm 3 mps 752 mmHg 94%
22:00 -3°C° 0.7 mm 2 mps 752 mmHg 93%
23:00 -3°C° 0 mm 2 mps 752 mmHg 91%

8 March, Monday

Time Temperature Precipitation Wind Pressure Humidity
00:00 -3°C° 0 mm 2 mps 752 mmHg 89%
01:00 -4°C° 0 mm 2 mps 752 mmHg 88%
02:00 -4°C° 0 mm 2 mps 752 mmHg 87%
03:00 -4°C° 0 mm 2 mps 752 mmHg 85%
04:00 -5°C° 0 mm 3 mps 752 mmHg 84%
05:00 -5°C° 0 mm 3 mps 753 mmHg 84%
06:00 -5°C° 0 mm 3 mps 753 mmHg 83%
07:00 -4°C° 0 mm 3 mps 753 mmHg 82%
08:00 -3°C° 0.1 mm 4 mps 754 mmHg 78%
09:00 -3°C° 0.1 mm 4 mps 754 mmHg 75%
10:00 -2°C° 0.1 mm 5 mps 755 mmHg 71%
11:00 -1°C° 0.1 mm 5 mps 755 mmHg 69%
12:00 -2°C° 0.1 mm 6 mps 756 mmHg 66%
13:00 -2°C° 0.1 mm 6 mps 756 mmHg 64%
14:00 -2°C° 0 mm 6 mps 756 mmHg 66%
15:00 -3°C° 0 mm 6 mps 756 mmHg 68%
16:00 -3°C° 0 mm 6 mps 756 mmHg 70%
17:00 -4°C° 0 mm 5 mps 757 mmHg 74%
18:00 -4°C° 0 mm 4 mps 757 mmHg 79%
19:00 -5°C° 0 mm 3 mps 758 mmHg 83%
20:00 -4°C° 0 mm 2 mps 758 mmHg 83%
21:00 -4°C° 0 mm 2 mps 759 mmHg 83%
22:00 -4°C° 0 mm 2 mps 759 mmHg 82%
23:00 -4°C° 0 mm 2 mps 759 mmHg 81%

9 March, Tuesday

Time Temperature Precipitation Wind Pressure Humidity
00:00 -2°C° 0 mm 1 mps 759 mmHg 80%
01:00 -2°C° 0 mm 1 mps 759 mmHg 79%
02:00 -2°C° 0 mm 1 mps 759 mmHg 79%
03:00 -3°C° 0 mm 1 mps 759 mmHg 79%
04:00 -3°C° 0 mm 1 mps 759 mmHg 78%
05:00 -3°C° 0 mm 1 mps 759 mmHg 76%
06:00 -3°C° 0 mm 1 mps 760 mmHg 74%
07:00 -3°C° 0 mm 1 mps 760 mmHg 72%
08:00 -2°C° 0 mm 1 mps 760 mmHg 66%
09:00 -1°C° 0 mm 1 mps 760 mmHg 61%
10:00 -1°C° 0 mm 1 mps 760 mmHg 55%
11:00 0°C° 0 mm 1 mps 760 mmHg 53%
12:00 0°C° 0 mm 1 mps 760 mmHg 50%
13:00 0°C° 0 mm 1 mps 760 mmHg 48%
14:00 0°C° 0 mm 1 mps 760 mmHg 48%
15:00 0°C° 0 mm 1 mps 760 mmHg 49%
16:00 0°C° 0 mm 1 mps 759 mmHg 49%
17:00 0°C° 0 mm 1 mps 759 mmHg 53%
18:00 -3°C° 0 mm 2 mps 759 mmHg 57%
19:00 -4°C° 0 mm 2 mps 759 mmHg 62%
20:00 -4°C° 0 mm 2 mps 759 mmHg 62%
21:00 -4°C° 0 mm 2 mps 759 mmHg 62%
22:00 -4°C° 0 mm 2 mps 759 mmHg 62%
23:00 -4°C° 0 mm 2 mps 759 mmHg 62%

10 March, Wednesday

Time Temperature Precipitation Wind Pressure Humidity
00:00 -5°C° 0 mm 3 mps 759 mmHg 63%
01:00 -5°C° 0 mm 3 mps 758 mmHg 64%
02:00 -5°C° 0 mm 3 mps 758 mmHg 64%
03:00 -5°C° 0 mm 3 mps 758 mmHg 64%
04:00 -5°C° 0 mm 3 mps 758 mmHg 64%
05:00 -5°C° 0 mm 3 mps 757 mmHg 63%
06:00 -5°C° 0 mm 3 mps 757 mmHg 63%
07:00 -5°C° 0 mm 3 mps 757 mmHg 62%
08:00 -2°C° 0 mm 3 mps 757 mmHg 59%
09:00 -2°C° 0 mm 4 mps 757 mmHg 56%
10:00 -1°C° 0 mm 4 mps 757 mmHg 53%
11:00 0°C° 0 mm 4 mps 757 mmHg 51%
12:00 +1°C° 0 mm 4 mps 756 mmHg 50%
13:00 +2°C° 0 mm 5 mps 756 mmHg 48%
14:00 +3°C° 0 mm 4 mps 755 mmHg 52%
15:00 +3°C° 0 mm 4 mps 755 mmHg 57%
16:00 +2°C° 0 mm 3 mps 754 mmHg 61%
17:00 +1°C° 0 mm 3 mps 754 mmHg 70%
18:00 +1°C° 0 mm 3 mps 753 mmHg 78%
19:00 0°C° 0 mm 3 mps 753 mmHg 87%
20:00 -1°C° 0 mm 4 mps 752 mmHg 88%
21:00 -1°C° 0 mm 4 mps 752 mmHg 89%
22:00 -1°C° 0 mm 4 mps 751 mmHg 90%
23:00 -1°C° 0 mm 5 mps 751 mmHg 88%
Show more

We Need Your Consent

Meteoprog and our Service Providers may store and access personal data such as cookies, device identifiers or other similar technologies on your device and process such data to personalise content and ads, as well as provide social media features and to analyse the traffic.

  • Store and/or access information on your device

    Cookies, device identifiers or other information can be stored or accessed on your device for the purposes indicated above.

  • Personalised ads and content, ad and content measurement, audience insights, and products development

    Ads and content can be personalised based on a profile. More data can be added to better personalise ads and content. Ad and content performance can be measured. Insights about the audience who saw the ads and content can be derived. Such data can be used to develop or improve user’s experience, systems and software.

By clicking ‘I Agree’ you will allow the use of indicated cookies, device identifiers, web beacons or other similar technologies. Your settings can be changed in the browser on your device.

For certain purposes, legitimate interests may be relied on, rather than consent. You can read more about this in our Privacy and Cookie Policy.